EHI
5 2 0 0 1 0 0 0 0 0 0 0 0 0 0 0 0 0 0 1 2 4 7 14 19 20 17 11 9 10 11 10 9 6 5 4 2 1 1 2 1 0 0 0 0 0 1 2 3
2 3 2 1 1 0 0 0 0 0 0 0 0 0 0 0 0 0 0 1 3 4 7 14 18 18 15 11 9 9 9 9 8 5 4 3 2 0 1 2 3 2 1 1 1 0 1 2 3
2 3 3 2 1 0 0 0 0 0 0 0 0 0 0 0 0 1 1 2 3 4 7 13 18 18 15 12 10 9 8 8 6 4 4 4 3 1 1 3 3 3 3 2 2 1 2 2 3
3 3 3 2 1 0 0 0 1 1 1 2 1 1 1 0 1 2 2 3 4 4 5 11 17 19 17 14 11 9 8 7 6 4 5 6 6 4 2 2 2 1 2 2 2 3 3 3 3
4 3 2 2 1 0 0 0 0 1 2 3 3 2 2 1 3 4 3 4 5 5 5 9 15 18 17 15 12 10 9 8 6 5 4 6 7 7 5 2 0 0 1 1 2 3 3 3 2
5 4 2 1 0 0 0 0 0 1 2 4 4 3 2 2 4 4 4 4 5 6 7 9 13 15 15 14 12 11 10 9 7 6 4 4 5 7 7 4 1 1 2 3 2 2 2 2 2
4 4 2 1 0 0 0 0 0 0 1 3 4 3 2 2 3 5 4 3 4 6 8 10 12 12 12 11 11 11 12 13 13 10 7 3 4 6 7 4 2 1 3 5 4 2 2 2 2
3 2 1 1 0 0 0 0 0 0 1 2 3 3 3 3 4 5 4 3 3 5 7 8 10 11 10 9 9 9 11 14 16 13 7 2 2 4 5 3 2 2 3 4 4 3 2 2 2
2 1 0 0 0 0 0 0 0 1 2 3 3 4 4 4 5 5 5 5 4 4 4 5 7 9 9 7 6 6 8 10 11 8 4 1 0 1 1 2 2 3 3 4 5 4 2 2 2
2 1 1 1 0 0 0 0 0 1 3 4 5 5 4 4 5 6 6 6 5 4 4 4 6 9 9 7 5 3 4 4 4 3 1 0 0 0 0 0 1 3 4 5 5 4 2 1 1
3 2 2 2 0 0 0 1 1 1 2 4 7 6 4 4 5 6 5 5 6 7 6 6 7 8 8 6 4 2 1 1 2 2 1 0 0 0 0 0 0 1 2 2 2 1 0 0 0
3 3 3 2 0 0 0 1 1 1 3 6 7 5 4 3 5 6 5 5 7 9 9 8 8 7 6 4 3 1 0 0 1 1 1 0 0 0 0 0 0 0 0 0 0 0 0 0 0
2 2 2 1 0 0 0 1 1 2 6 9 8 5 3 3 4 5 5 5 7 9 9 8 7 6 4 2 1 0 0 0 0 0 0 0 0 1 0 0 0 0 0 0 0 0 1 0 0
1 1 1 1 0 0 0 1 2 5 9 12 9 5 3 3 4 4 3 4 6 9 10 10 8 8 6 4 1 0 0 0 0 0 0 0 0 0 0 0 0 0 0 0 0 0 0 0 0
0 0 0 0 0 0 0 1 4 9 13 13 9 6 3 4 5 4 2 3 7 10 12 13 12 11 9 6 2 1 1 0 0 0 0 0 0 0 0 0 0 0 0 0 0 0 0 0 0
0 0 0 0 0 0 0 1 5 11 14 13 11 8 5 4 4 4 5 7 10 13 14 15 14 13 10 6 2 1 0 0 0 0 0 0 1 1 1 1 1 0 0 0 0 0 0 0 1
0 0 0 0 0 0 0 2 6 11 14 13 12 11 10 7 6 8 9 11 14 15 15 14 14 13 10 6 3 1 1 1 1 1 1 0 1 2 2 2 1 0 0 0 0 0 0 1 2
0 0 0 0 0 0 0 2 7 11 13 13 12 12 12 11 11 12 14 16 17 16 14 13 13 13 12 8 4 4 4 3 2 2 2 1 1 1 2 1 0 0 0 0 0 0 1 1 2
0 0 0 0 0 0 0 2 7 10 12 14 14 13 11 11 13 16 19 21 20 17 14 13 14 14 13 10 7 6 6 6 5 4 4 3 1 0 0 0 0 0 0 0 0 0 1 1 1
0 0 0 0 0 0 0 1 5 9 10 13 15 15 12 12 16 22 25 25 22 17 14 14 16 15 13 11 9 8 7 6 6 6 6 5 3 1 0 0 0 0 0 0 0 0 1 1 1
0 0 0 0 0 0 0 1 4 7 9 11 14 15 15 15 20 26 28 26 22 18 16 17 19 17 14 12 10 8 7 6 6 5 6 6 6 4 2 0 0 0 0 0 0 0 1 2 1
0 0 0 0 0 0 0 1 4 6 8 11 13 14 14 16 21 27 29 27 24 20 19 21 21 19 16 14 13 10 9 8 6 4 5 5 6 6 4 2 1 1 1 0 0 0 1 2 2
0 0 0 0 0 0 0 1 4 6 7 9 12 15 16 15 19 25 29 28 25 22 22 24 24 22 18 16 15 12 10 9 7 6 5 4 4 5 5 4 2 2 2 1 0 0 0 1 2
0 0 0 0 0 0 0 1 3 5 5 6 11 17 19 17 17 23 28 28 25 25 26 27 27 26 22 18 15 14 11 9 10 10 8 5 4 4 4 4 3 4 3 2 1 1 0 0 1
0 0 0 0 0 0 0 1 3 4 4 6 11 17 20 19 17 20 25 26 26 28 30 30 29 28 25 21 18 16 13 11 12 11 9 6 4 3 3 3 4 5 4 4 5 4 3 1 1
0 0 0 0 0 0 0 1 3 4 4 6 11 15 19 20 19 20 22 25 26 28 29 30 28 27 27 26 23 19 16 13 12 10 9 6 4 2 2 2 4 5 4 4 6 7 6 5 3
0 0 0 0 0 0 0 1 2 4 5 7 11 14 19 22 23 23 24 24 25 24 25 26 26 25 25 27 26 23 18 15 12 11 9 7 4 2 2 2 3 4 5 4 5 6 7 7 7
0 0 0 0 0 0 0 0 1 4 6 8 12 15 18 22 24 24 23 23 22 21 20 22 23 22 23 25 26 24 19 15 14 13 12 8 6 4 3 3 3 3 5 5 4 4 5 7 8
0 0 0 0 0 0 0 0 1 4 7 10 12 15 18 21 21 19 20 19 18 17 17 19 21 22 22 22 22 21 18 16 15 15 13 10 8 7 5 4 3 3 5 6 5 5 5 6 6
0 0 0 0 0 0 0 0 1 5 8 11 13 14 17 19 19 18 18 16 13 13 15 18 21 23 23 21 19 19 17 16 16 15 13 10 9 8 7 5 3 4 6 6 6 6 6 5 5
Wind_Speed
8 6 3 1 1 2 1 1 4 6 6 7 9 10 9 7 4 4 2 7 9 8 8 9 10 11 10 10 10 9 9 9 10 10 11 11 12 13 13 13 11 11 11 11 10 10 9 9 8
6 5 2 0 2 2 1 2 7 7 8 9 10 10 8 7 6 6 3 7 9 8 7 8 11 11 10 10 9 9 9 9 9 9 10 11 12 12 12 12 11 11 11 10 10 9 9 8 8
5 4 1 1 1 2 2 4 8 8 8 7 6 6 5 5 5 5 5 9 8 7 6 8 12 11 10 9 9 9 8 9 9 9 10 10 11 12 12 11 11 11 11 10 10 9 8 8 7
2 2 1 1 1 2 3 5 9 9 7 7 7 6 4 4 4 6 9 9 9 7 6 8 11 10 9 8 8 8 8 8 9 9 9 10 11 11 12 11 11 10 10 10 9 8 8 7 6
1 1 2 1 1 1 2 5 8 8 5 6 8 7 3 3 8 10 10 10 9 7 6 7 10 10 9 8 8 8 8 8 9 9 9 9 10 10 11 11 10 10 10 9 9 8 7 6 5
1 2 2 1 0 1 3 6 8 9 8 8 9 7 2 3 8 9 9 8 8 8 6 6 9 9 8 8 8 8 8 9 9 9 9 9 9 10 10 10 9 9 9 9 8 8 7 6 5
2 1 1 1 0 1 4 6 7 8 8 6 8 6 3 3 6 8 8 8 7 7 6 4 5 6 7 7 7 8 8 9 9 9 9 9 9 9 9 9 9 9 9 8 8 7 6 6 5
3 2 1 1 1 1 4 6 6 7 6 8 7 8 6 6 7 8 8 7 6 6 5 4 3 3 3 3 6 7 8 9 9 9 8 8 8 8 8 8 8 8 8 8 7 7 6 5 5
3 2 2 3 3 2 5 7 4 5 8 5 4 6 9 10 9 9 7 6 5 5 4 4 4 3 2 3 4 5 6 7 7 6 7 6 3 3 4 6 8 8 7 7 6 6 6 5 5
4 3 6 5 5 5 5 8 6 6 7 6 7 8 11 11 10 10 9 7 5 5 4 4 4 4 3 3 2 2 2 3 2 2 3 2 2 2 4 5 7 7 6 6 6 5 5 3 2
3 5 4 3 5 6 6 6 5 9 5 8 13 13 11 10 9 9 8 7 7 6 5 5 4 4 3 2 3 1 1 2 2 2 3 2 2 2 2 2 3 3 4 3 3 3 2 2 2
2 5 3 2 3 5 6 6 6 6 7 10 13 13 12 11 9 9 8 7 6 6 6 5 5 4 3 3 2 2 2 2 2 2 3 3 2 2 2 2 2 1 1 2 1 1 2 2 3
2 3 2 1 2 4 6 6 6 6 10 11 12 12 12 11 8 8 8 8 7 6 5 5 5 5 4 3 2 3 2 3 3 2 2 3 3 2 2 2 2 2 1 2 2 1 2 2 3
2 2 2 1 2 5 8 5 5 7 12 12 12 11 11 10 10 8 8 7 7 7 6 5 5 5 5 4 3 3 3 3 3 2 3 4 3 2 2 2 2 2 2 2 2 2 2 2 2
2 3 4 1 1 3 8 4 5 11 12 12 12 11 10 10 10 10 10 9 8 8 7 6 5 5 5 4 3 3 3 3 3 3 3 3 3 3 2 2 1 1 1 2 1 1 1 1 1
4 3 2 5 1 3 7 5 7 11 13 11 11 11 10 9 10 10 10 9 9 8 7 6 6 6 4 3 3 2 2 3 3 3 2 3 3 3 3 2 1 1 1 2 2 1 1 1 1
3 1 3 6 4 2 4 5 9 11 13 11 10 10 10 9 8 9 10 10 10 9 8 7 6 6 5 4 3 2 3 3 2 2 2 3 3 3 3 2 2 2 2 1 1 1 1 1 0
4 3 4 5 5 1 2 4 9 11 11 11 10 10 10 11 10 10 10 11 9 9 7 7 5 5 5 3 2 2 2 2 2 2 2 3 3 3 3 2 2 2 2 1 1 1 1 1 1
5 3 4 7 7 0 3 4 8 9 9 10 9 10 10 10 9 9 10 10 9 8 7 7 6 5 4 3 3 2 2 1 1 2 3 3 3 3 3 2 1 2 2 2 2 2 1 1 1
6 4 5 6 4 1 1 3 5 9 11 12 13 12 12 9 8 9 10 10 10 9 8 7 6 6 5 3 3 2 2 2 2 2 2 3 3 3 3 3 2 2 2 2 2 2 1 1 1
7 6 6 4 3 3 3 3 3 3 4 7 9 11 11 14 14 12 11 10 10 10 9 8 7 6 5 4 3 2 2 1 1 1 1 2 3 3 2 3 2 2 2 2 2 2 3 2 1
7 7 6 4 1 2 2 2 5 4 3 6 7 8 10 11 11 12 11 11 11 10 9 8 7 6 5 5 5 4 3 3 3 2 2 2 3 3 3 3 3 3 2 2 3 3 2 3 1
7 6 4 2 1 1 1 2 6 1 3 6 7 7 9 12 13 13 13 12 11 10 9 8 7 6 6 5 6 5 4 3 2 1 1 2 2 2 3 3 3 3 2 3 3 2 2 3 3
3 2 4 5 5 1 3 3 5 4 7 6 6 8 8 10 11 11 11 10 9 9 8 8 8 6 6 6 6 6 5 4 3 2 2 2 1 2 2 3 3 3 3 3 3 3 3 2 2
2 5 4 5 4 5 3 1 7 7 6 8 8 7 7 9 11 10 11 10 10 10 10 9 9 7 7 7 6 6 5 5 5 4 3 3 2 2 3 3 2 2 3 3 3 2 2 3 2
3 8 7 4 4 5 3 3 7 5 3 4 5 5 6 7 9 9 10 11 11 11 10 9 9 8 7 7 6 5 4 3 3 4 3 3 3 3 3 3 3 3 3 3 3 2 3 2 2
2 3 8 7 2 1 4 4 6 3 2 4 5 5 4 6 7 9 8 9 9 9 9 10 9 7 7 7 6 5 4 4 3 3 3 3 3 3 3 3 3 3 3 2 3 2 3 2 2
5 5 5 6 4 2 3 3 4 3 2 4 5 4 3 4 5 7 8 8 8 8 8 7 8 7 6 7 6 5 5 4 3 3 3 3 3 3 3 3 3 3 3 3 3 2 2 2 2
0 2 5 4 6 6 3 7 6 6 5 6 5 5 6 6 5 6 6 6 5 5 6 6 6 5 5 5 5 5 4 4 4 4 4 3 2 2 3 3 3 3 3 3 3 3 3 3 2
5 5 7 5 4 4 5 7 4 5 6 7 6 5 6 5 4 4 6 7 6 5 5 5 6 6 6 5 4 4 4 3 4 3 3 2 2 2 3 3 3 3 3 3 3 3 3 3 3
Wind_Direction
175 171 176 193 34 40 49 106 109 90 67 65 74 82 79 68 97 139 187 148 142 150 160 156 147 142 138 133 129 123 119 119 120 122 124 125 125 128 131 133 135 137 138 138 140 142 145 147 143
170 174 185 32 60 54 34 100 85 98 122 112 84 82 77 72 87 114 129 145 143 149 155 153 146 143 141 137 133 128 126 125 125 126 128 129 128 129 131 132 134 133 133 136 138 138 140 142 142
182 186 180 54 66 163 136 102 108 110 114 103 90 65 71 96 108 132 156 148 139 144 150 153 147 144 141 138 135 135 135 132 131 130 132 135 134 134 133 134 135 134 136 138 140 141 142 145 148
170 153 32 56 253 207 142 122 120 109 86 79 97 75 62 90 124 137 142 139 137 142 149 153 148 145 142 141 142 142 141 139 136 135 136 138 139 140 139 140 141 140 141 142 144 145 148 149 151
114 95 45 347 238 121 113 118 116 113 108 93 96 95 70 61 113 130 138 137 134 139 144 152 149 146 145 145 148 149 149 145 143 141 140 139 141 144 146 146 147 146 145 145 145 147 148 151 150
68 63 54 321 203 109 121 124 111 105 113 111 105 110 109 128 127 137 137 135 135 138 140 147 150 146 147 148 151 154 153 153 149 147 144 143 144 147 151 151 152 151 151 150 152 154 156 154 154
139 110 201 204 16 91 135 124 112 119 125 133 128 108 127 159 150 139 132 129 129 133 133 133 147 149 150 150 153 154 154 155 153 152 150 148 148 150 154 154 156 158 159 159 161 164 165 162 163
167 112 294 209 135 129 127 108 126 124 115 130 126 131 159 182 148 131 121 119 123 124 132 136 141 143 152 159 159 154 155 153 153 151 150 152 151 152 155 159 162 165 165 166 168 169 169 170 172
151 102 235 210 164 165 136 114 106 95 104 110 112 136 153 151 132 122 112 109 120 130 139 147 148 150 151 163 161 154 152 151 149 146 146 148 150 150 156 167 170 171 174 178 180 177 177 180 180
144 180 225 205 177 168 151 135 133 96 93 98 102 113 131 137 135 133 133 138 141 150 158 157 161 163 160 162 136 131 143 136 134 131 138 141 147 158 163 176 181 178 180 183 188 188 187 181 166
182 210 233 233 182 147 138 139 126 119 121 146 143 144 144 141 141 141 146 152 158 160 160 160 161 159 157 150 140 138 136 132 135 145 147 144 142 150 161 161 179 183 187 185 184 179 181 164 174
226 249 218 196 149 129 139 139 124 138 158 154 149 149 148 147 151 152 153 156 153 152 164 164 160 154 158 147 147 150 150 159 159 161 154 144 146 148 155 154 168 173 175 170 164 161 177 171 182
259 276 305 191 124 128 116 122 123 130 139 141 142 144 151 152 155 157 156 152 149 151 159 164 157 157 157 148 154 150 160 163 162 162 161 155 152 151 152 157 156 171 161 158 161 175 175 176 192
268 309 318 207 148 135 123 123 107 140 142 141 147 152 157 157 156 151 151 153 152 154 157 159 152 151 141 144 153 155 162 160 155 160 162 151 152 151 148 157 164 180 180 175 171 174 172 188 188
349 5 340 302 142 144 115 99 149 158 147 149 157 159 158 162 160 161 165 161 159 157 155 156 151 142 138 142 147 140 150 155 159 165 162 152 151 150 151 155 166 185 171 157 148 156 153 164 178
7 15 333 288 231 174 123 172 185 165 153 158 164 162 161 170 170 169 165 161 159 153 154 159 153 143 143 144 139 134 140 152 158 155 158 162 159 152 146 153 172 169 141 141 147 151 142 170 170
7 320 284 293 269 184 133 180 187 174 162 166 170 167 166 168 172 172 168 163 161 158 158 157 150 150 152 148 139 132 126 137 149 152 158 168 162 158 151 160 169 145 132 148 170 149 154 161 197
247 263 291 287 282 162 166 189 177 181 175 174 175 172 171 173 180 175 168 163 158 157 156 155 150 154 151 139 126 112 108 125 138 149 160 162 157 153 148 156 161 151 141 152 156 159 163 174 193
230 238 265 274 281 270 218 199 181 187 181 179 178 178 180 182 180 168 165 160 153 153 153 155 152 161 151 144 147 143 159 159 145 172 171 166 164 156 147 162 164 160 161 175 173 158 152 196 150
243 246 262 267 263 145 221 239 198 185 189 186 182 182 182 174 167 167 165 162 161 162 161 160 161 166 167 167 164 161 160 166 166 177 178 179 171 170 170 171 177 173 164 162 164 160 154 210 142
250 219 225 237 323 12 104 323 263 225 192 186 186 185 180 176 173 173 170 168 164 165 167 169 169 167 169 158 134 115 85 66 92 171 190 199 188 188 183 178 174 170 168 181 188 174 159 182 234
251 234 203 206 118 281 125 230 270 226 213 197 196 187 182 179 174 173 170 170 173 174 169 167 167 167 167 158 149 149 157 175 197 195 201 211 202 201 195 180 181 178 179 185 197 184 172 161 193
230 225 189 192 143 34 357 141 279 213 217 220 202 190 182 180 177 176 176 176 176 171 168 170 168 171 170 164 164 162 172 186 188 174 195 217 227 219 206 188 186 188 195 199 203 193 184 176 180
212 55 35 46 66 15 255 156 265 227 211 210 197 187 186 180 179 180 177 171 169 167 168 170 168 178 179 174 173 172 177 180 174 186 197 212 231 240 233 215 203 201 198 201 207 202 196 197 188
99 93 34 2 10 262 271 168 242 236 203 187 188 187 186 183 176 176 174 172 173 173 174 174 174 182 184 181 184 183 186 186 190 197 196 196 207 220 233 225 209 212 209 203 199 199 208 203 198
208 141 157 189 216 272 314 237 259 257 204 169 160 161 165 174 172 172 178 176 174 175 173 172 178 185 186 186 188 186 186 191 203 201 194 199 207 213 217 214 208 207 207 206 192 199 213 204 211
188 178 171 142 167 223 274 279 304 310 94 111 115 128 162 171 164 167 171 171 170 172 174 175 178 185 188 185 179 181 186 189 198 203 194 202 210 211 208 209 199 200 199 201 188 201 213 208 215
164 164 95 108 143 234 275 266 239 253 174 138 129 142 158 152 154 156 162 163 171 173 170 172 174 174 181 178 181 185 192 190 192 196 208 209 215 216 201 207 207 203 196 197 197 205 211 203 220
255 101 110 121 153 161 222 259 225 191 172 160 164 161 153 142 150 156 158 158 150 153 158 164 170 165 172 179 181 182 184 183 185 201 215 211 209 202 199 206 209 208 203 197 196 209 204 203 222
178 173 143 148 223 176 174 255 262 180 167 162 156 149 136 134 155 155 144 137 136 145 152 162 161 162 176 176 170 187 188 184 190 201 208 198 213 221 212 202 197 202 204 196 195 209 202 196 207